SCP
1 1 1 1 0 1 0 0 1 1 1 1 0 0 0 0 1 0 1 0 0 0
3 3 3 1 1 1 0 0 1 1 1 1 1 1 1 1 1 0 1 1 0 0
2 1 1 1 1 0 1 0 1 1 2 2 1 1 1 1 1 1 1 0 0 0
0 0 0 0 0 1 1 1 1 2 1 1 1 1 1 1 1 1 1 1 1 0
1 0 0 1 0 -0 1 1 2 1 1 1 1 1 1 0 0 1 1 1 1 0
1 0 0 0 0 1 1 1 1 1 1 1 1 0 0 0 0 0 0 0 0 0
1 1 2 2 1 1 1 1 2 1 1 1 0 0 0 0 0 1 0 1 1 0
1 1 1 1 1 1 1 1 1 1 1 0 0 0 1 0 0 1 0 0 0 0
1 1 2 1 1 1 1 1 1 0 0 0 0 0 0 0 0 0 0 0 0 0
0 0 0 0 0 1 1 0 0 0 0 0 0 0 0 0 0 0 0 0 0 0
0 0 0 0 0 0 0 0 0 0 0 0 0 0 0 0 0 0 0 0 0 1
0 0 0 0 0 0 0 0 0 0 0 0 0 0 0 0 0 0 0 0 0 0
0 0 0 0 0 0 0 0 0 0 0 0 0 0 0 0 0 0 0 0 0 0
0 0 0 0 0 0 0 0 0 0 0 0 0 0 0 0 0 0 0 0 0 0
Wind_Speed_500mb
18 10 11 16 13 13 19 22 21 32 31 32 32 35 35 45 48 42 43 42 42 34
19 14 13 14 21 17 24 28 33 31 35 34 38 36 42 46 44 46 45 43 43 43
20 10 2 17 48 43 35 40 42 42 42 41 38 40 38 41 42 44 49 50 45 46
22 12 22 44 42 59 58 49 50 51 45 47 49 43 43 46 43 45 47 50 50 46
26 29 54 63 56 53 47 49 49 47 47 47 50 49 51 45 44 47 55 54 51 50
37 47 32 29 33 33 37 39 38 39 42 43 45 45 44 46 44 44 45 47 55 59
10 14 19 23 25 27 29 32 35 33 33 34 36 38 39 42 43 40 42 42 45 51
11 16 17 17 24 28 28 27 31 31 30 34 31 30 33 30 30 36 38 41 44 47
11 14 15 20 24 25 24 25 24 26 30 31 31 37 32 33 36 33 34 42 39 44
11 14 18 22 25 28 27 30 31 32 34 36 35 36 41 44 47 41 45 49 53 53
14 20 24 26 28 32 33 32 34 35 34 38 41 44 41 46 49 42 46 51 47 54
21 24 25 24 24 28 29 32 36 36 42 44 47 45 44 47 47 48 50 49 47 46
24 23 22 22 24 26 30 36 36 37 40 43 43 39 34 44 40 42 45 50 54 52
21 20 23 19 24 29 36 42 43 41 44 50 44 42 40 44 37 40 42 45 49 50
Wind_Direction_500mb
215 230 275 293 271 278 288 291 287 290 274 275 270 261 250 239 245 247 247 246 242 241
204 216 209 286 289 272 286 288 291 275 277 275 275 266 253 247 247 245 247 250 252 248
212 155 273 294 295 281 275 277 270 273 272 273 267 272 267 261 258 251 246 243 247 253
216 216 275 288 275 273 287 285 285 283 275 272 271 261 259 260 255 253 249 259 248 251
234 262 294 291 285 288 281 286 284 282 281 276 273 270 265 263 263 258 254 255 250 243
256 275 301 303 289 298 301 302 297 290 288 285 284 280 278 274 275 271 267 263 258 259
307 308 316 320 320 314 301 298 300 300 304 300 293 288 285 285 281 274 277 275 269 268
321 314 302 307 306 303 302 304 300 304 307 310 304 304 297 302 302 302 293 289 281 282
313 315 323 316 315 308 309 301 305 308 315 310 309 303 306 308 310 303 297 297 291 294
330 330 322 318 313 311 319 316 314 317 317 311 306 301 301 300 298 292 291 289 290 289
322 319 314 311 309 320 321 323 322 318 315 313 313 308 306 307 302 301 302 300 290 292
319 321 319 316 323 318 318 318 320 319 319 316 309 307 303 304 302 299 297 295 291 298
317 317 317 315 319 318 317 317 314 314 315 313 309 309 303 307 311 307 299 296 298 298
307 313 314 313 314 311 312 303 300 300 307 311 321 313 307 307 310 311 309 307 303 297
Wind_Speed_850mb
18 10 11 16 13 13 19 22 21 32 31 32 32 35 35 45 48 42 43 42 42 34
19 14 13 14 21 17 24 28 33 31 35 34 38 36 42 46 44 46 45 43 43 43
20 10 2 17 48 43 35 40 42 42 42 41 38 40 38 41 42 44 49 50 45 46
22 12 22 44 42 59 58 49 50 51 45 47 49 43 43 46 43 45 47 50 50 46
26 29 54 63 56 53 47 49 49 47 47 47 50 49 51 45 44 47 55 54 51 50
37 47 32 29 33 33 37 39 38 39 42 43 45 45 44 46 44 44 45 47 55 59
10 14 19 23 25 27 29 32 35 33 33 34 36 38 39 42 43 40 42 42 45 51
11 16 17 17 24 28 28 27 31 31 30 34 31 30 33 30 30 36 38 41 44 47
11 14 15 20 24 25 24 25 24 26 30 31 31 37 32 33 36 33 34 42 39 44
11 14 18 22 25 28 27 30 31 32 34 36 35 36 41 44 47 41 45 49 53 53
14 20 24 26 28 32 33 32 34 35 34 38 41 44 41 46 49 42 46 51 47 54
21 24 25 24 24 28 29 32 36 36 42 44 47 45 44 47 47 48 50 49 47 46
24 23 22 22 24 26 30 36 36 37 40 43 43 39 34 44 40 42 45 50 54 52
21 20 23 19 24 29 36 42 43 41 44 50 44 42 40 44 37 40 42 45 49 50
Wind_Direction_850mb
215 230 275 293 271 278 288 291 287 290 274 275 270 261 250 239 245 247 247 246 242 241
204 216 209 286 289 272 286 288 291 275 277 275 275 266 253 247 247 245 247 250 252 248
212 155 273 294 295 281 275 277 270 273 272 273 267 272 267 261 258 251 246 243 247 253
216 216 275 288 275 273 287 285 285 283 275 272 271 261 259 260 255 253 249 259 248 251
234 262 294 291 285 288 281 286 284 282 281 276 273 270 265 263 263 258 254 255 250 243
256 275 301 303 289 298 301 302 297 290 288 285 284 280 278 274 275 271 267 263 258 259
307 308 316 320 320 314 301 298 300 300 304 300 293 288 285 285 281 274 277 275 269 268
321 314 302 307 306 303 302 304 300 304 307 310 304 304 297 302 302 302 293 289 281 282
313 315 323 316 315 308 309 301 305 308 315 310 309 303 306 308 310 303 297 297 291 294
330 330 322 318 313 311 319 316 314 317 317 311 306 301 301 300 298 292 291 289 290 289
322 319 314 311 309 320 321 323 322 318 315 313 313 308 306 307 302 301 302 300 290 292
319 321 319 316 323 318 318 318 320 319 319 316 309 307 303 304 302 299 297 295 291 298
317 317 317 315 319 318 317 317 314 314 315 313 309 309 303 307 311 307 299 296 298 298
307 313 314 313 314 311 312 303 300 300 307 311 321 313 307 307 310 311 309 307 303 297